Wind_Speed
8 7 7 7 7 7 7 7 7 7 8 8 9 9 10 10 11 12 12 12 12 13 12 12 13 13 13 14 15 16 17 18 18 19 19 19 19 19 20 20 20 20 21 21 21 21 22 22 22 22 22 22 22 22 22 23 23 23 23 23 24 24 24 24 25 25 25 25 25 25 25 26 26 26 27 27 27 27 28 28 28 28 28 29 29 29
6 6 6 6 6 7 7 7 7 7 8 9 10 10 10 11 11 12 12 11 11 12 12 12 13 13 14 15 16 17 17 18 18 19 19 19 20 20 20 20 20 20 21 21 21 21 21 21 21 21 21 21 21 22 22 22 22 22 23 23 24 24 24 24 25 25 25 25 25 26 26 26 27 27 27 28 28 28 28 29 29 29 29 29 29 30
4 5 5 5 6 6 7 7 7 8 9 9 10 11 11 11 12 12 11 11 11 11 12 12 13 13 14 15 16 17 17 18 19 19 20 20 20 21 20 20 20 20 20 20 20 20 20 20 20 20 20 21 21 21 22 22 22 22 23 23 24 24 24 25 25 25 26 26 26 26 27 27 27 28 28 28 28 28 29 29 29 29 29 29 29 30
5 5 6 5 6 7 7 8 8 8 9 10 10 11 11 11 11 11 11 11 12 12 12 12 13 13 14 15 16 17 18 19 19 20 21 21 21 21 20 20 19 19 19 19 19 19 19 19 20 20 20 20 21 21 22 22 23 23 23 24 24 24 25 25 26 26 26 27 27 27 27 28 28 28 28 28 28 28 28 29 29 29 29 29 29 29
5 5 5 5 6 7 8 8 9 9 10 10 10 10 10 10 11 11 11 11 12 12 12 12 13 13 14 15 16 17 18 19 20 21 21 21 20 20 19 19 18 18 18 18 18 19 19 19 20 20 21 21 22 22 22 23 23 24 24 24 25 25 26 26 26 26 27 27 27 27 27 27 27 27 27 27 28 28 28 28 28 28 29 29 29 29
6 5 6 6 7 8 8 9 9 9 9 9 9 9 10 11 11 11 11 11 11 12 12 13 13 14 14 15 16 18 19 20 20 20 20 19 19 19 18 18 18 18 18 19 19 19 20 20 21 21 22 22 22 23 23 24 24 25 25 25 26 26 26 26 27 27 27 27 27 27 27 26 26 26 26 26 26 27 27 27 28 28 28 29 29 29
6 6 6 6 7 8 8 8 8 8 8 8 9 10 10 11 11 11 11 11 12 12 13 13 14 14 14 15 16 17 18 19 19 18 18 18 18 17 17 17 18 18 19 19 20 20 21 21 22 22 23 23 24 24 25 25 25 26 26 26 26 26 26 27 27 26 26 26 26 26 26 26 25 25 25 26 26 26 26 27 27 28 28 28 29 29
7 6 6 6 7 8 8 8 7 7 8 8 9 10 11 11 11 11 11 11 12 12 13 13 14 14 14 15 16 16 17 17 17 17 17 17 17 17 17 17 18 19 20 20 21 21 22 22 23 23 24 24 25 25 26 26 26 26 26 26 26 26 26 26 26 25 25 25 25 25 25 25 25 25 25 25 25 26 26 26 27 27 28 28 28 29
7 7 7 7 8 8 8 8 8 8 8 9 10 11 11 11 11 11 11 11 11 11 12 13 14 14 15 15 15 16 17 17 17 17 17 17 17 17 17 18 19 20 20 21 21 22 23 23 24 24 25 25 25 26 26 26 26 26 26 25 25 25 25 24 24 24 24 24 24 24 24 24 24 25 25 25 25 26 26 26 27 27 28 28 28 29
7 7 8 8 8 7 8 9 9 9 9 9 10 10 10 11 11 11 11 11 11 11 12 13 14 15 16 16 16 16 17 17 17 17 17 17 17 18 18 19 19 20 20 21 22 22 23 24 24 25 25 25 25 25 25 25 25 25 25 24 24 24 23 23 23 23 23 23 23 23 24 24 24 25 25 25 26 26 26 27 27 28 28 28 29 29
7 7 7 8 8 8 8 9 9 9 9 9 10 10 9 9 10 11 12 12 13 13 13 13 14 15 16 16 17 17 17 17 16 16 16 16 16 17 17 18 18 19 20 21 21 22 23 23 24 24 24 25 25 25 25 24 24 24 23 23 23 23 22 22 22 22 23 23 23 23 24 24 24 25 25 26 26 26 27 27 28 28 28 28 29 29
7 7 7 7 8 8 8 9 9 9 8 9 9 9 9 8 9 10 12 13 13 14 14 14 14 15 16 17 17 17 16 16 16 15 15 15 15 16 16 16 17 18 19 20 21 21 22 22 22 23 23 24 24 24 24 23 23 23 22 22 22 22 22 22 22 23 23 23 23 24 24 24 25 25 26 26 27 27 27 28 28 28 28 29 29 29
7 6 7 7 7 8 8 8 8 8 8 8 8 9 9 9 10 10 11 12 13 14 14 15 15 16 16 16 17 16 16 16 15 15 15 15 15 15 16 17 17 18 19 20 20 20 21 21 22 22 23 23 23 23 22 22 22 22 21 21 22 22 22 23 23 23 24 24 24 25 25 25 26 26 26 27 27 28 28 28 28 28 29 29 29 29
7 7 7 7 8 8 8 8 8 9 9 8 9 9 10 10 10 11 11 12 13 13 14 15 16 17 16 16 15 15 15 15 15 15 15 15 15 16 17 17 18 19 20 20 20 20 20 21 21 21 22 22 22 21 21 21 21 21 21 22 23 23 24 24 24 25 25 25 25 25 26 26 26 26 27 27 27 28 28 28 28 28 28 29 29 29
7 7 7 8 8 8 8 8 9 9 9 9 9 9 10 10 10 11 11 12 13 14 15 16 17 17 16 15 14 13 13 13 14 15 15 16 16 17 17 18 19 20 20 20 20 20 20 20 20 20 21 21 21 20 20 21 22 22 23 24 24 25 25 25 25 26 26 26 26 26 26 26 26 26 27 27 27 28 28 28 28 28 29 29 29 29
7 7 8 8 9 9 9 9 9 9 9 9 9 9 10 10 10 11 11 12 13 14 15 16 16 16 15 14 13 12 12 12 13 15 16 17 18 18 18 18 19 20 20 20 20 20 20 20 20 20 20 21 21 22 22 22 23 24 25 25 26 26 26 26 26 26 26 26 26 26 26 26 26 27 27 27 27 28 28 28 28 29 29 29 29 29
7 8 8 8 9 9 9 9 9 9 9 9 9 9 10 10 10 11 11 12 13 13 13 14 13 12 12 13 13 12 11 12 14 15 17 19 19 19 18 18 19 20 20 20 20 20 20 20 20 20 20 21 22 22 23 24 25 26 26 27 27 27 27 27 26 26 26 26 26 26 27 27 27 27 27 27 28 28 28 28 29 29 29 29 30 30
7 8 8 8 9 9 9 9 9 8 8 9 9 9 9 10 10 11 11 12 12 13 13 13 12 11 11 12 13 13 13 14 15 17 18 19 20 19 18 18 18 20 20 20 20 20 20 20 20 21 22 23 24 25 26 26 27 27 27 27 27 27 27 27 27 27 27 27 27 27 27 27 27 27 28 28 28 28 29 29 29 29 29 30 30 30
8 8 8 8 9 9 9 9 8 8 8 8 9 10 10 10 11 11 12 13 13 13 13 13 13 14 14 15 16 16 15 15 16 17 18 19 20 20 18 17 18 19 20 20 20 20 19 20 21 23 24 25 25 26 26 26 27 27 27 27 27 28 28 28 28 28 28 28 27 28 28 28 28 28 28 28 29 29 29 29 29 29 30 30 30 30
9 9 9 9 9 9 9 8 8 8 8 8 10 11 12 12 12 13 13 13 13 13 13 13 14 15 16 17 18 18 17 16 16 17 18 19 20 20 18 17 17 18 19 20 19 19 19 20 22 23 24 24 25 25 26 26 27 27 28 28 29 29 29 29 29 28 28 28 28 28 28 28 28 28 28 28 29 29 29 29 29 30 30 29 30 30
10 10 9 9 9 9 9 8 8 8 9 10 11 12 13 13 13 13 13 12 12 13 13 14 15 16 17 18 19 19 18 17 16 17 17 18 19 19 17 16 17 18 19 19 19 19 20 20 21 22 23 24 25 25 26 27 28 29 29 29 29 29 29 29 29 29 29 28 28 28 28 28 28 28 29 29 29 29 29 29 30 30 30 30 30 30
10 10 10 9 9 9 9 10 10 10 10 11 12 12 12 12 12 12 12 12 12 13 14 15 17 18 19 20 20 20 19 17 16 16 15 16 18 19 17 16 16 17 18 19 19 19 19 20 21 22 23 24 26 27 27 28 29 29 30 30 30 30 30 29 29 29 29 29 29 29 29 29 29 29 29 29 29 29 29 30 30 30 30 30 30 30
10 10 10 9 9 9 10 10 11 11 11 11 11 12 12 12 13 13 13 13 14 15 16 18 19 20 20 21 21 20 18 16 15 14 14 14 16 18 17 15 15 17 18 19 19 19 20 21 22 22 24 25 26 27 28 28 29 29 30 30 30 30 30 29 29 29 29 29 29 29 29 29 29 29 29 29 29 29 29 29 30 30 30 30 31 31
8 9 9 8 8 9 10 11 11 12 12 11 12 12 13 13 13 14 15 15 16 17 17 18 19 20 20 20 19 18 16 14 13 12 12 13 16 17 17 15 16 17 18 18 19 19 20 21 22 23 24 25 26 27 28 28 29 29 29 29 29 29 29 29 29 29 29 30 30 30 29 29 29 29 29 29 29 29 29 29 29 29 30 30 31 31
8 8 8 8 9 10 11 12 13 13 13 13 12 12 13 13 14 15 15 16 16 16 16 16 17 17 18 17 16 15 14 12 11 11 12 13 15 17 17 15 15 17 18 19 19 19 20 22 23 23 24 25 26 27 27 27 27 28 28 28 28 29 29 29 29 29 30 30 30 30 30 30 30 30 29 29 29 29 29 29 29 29 29 30 30 31
10 10 11 11 11 12 12 13 13 14 14 14 13 13 13 14 15 15 16 16 15 14 14 14 14 15 16 15 15 14 12 11 10 11 12 13 15 17 17 15 15 17 18 19 19 19 21 22 24 24 24 25 25 26 26 26 26 26 27 28 28 28 29 29 29 30 30 30 30 30 30 30 29 29 29 29 29 29 29 29 29 29 29 29 30 31
13 13 13 13 13 13 13 14 14 14 15 15 15 14 14 15 15 15 15 15 14 13 12 12 12 13 14 14 14 13 12 11 11 11 12 14 15 16 16 16 15 16 18 19 20 20 21 23 24 24 24 24 24 24 24 24 25 26 26 27 28 28 28 29 29 29 29 30 30 30 29 29 29 29 29 29 29 29 29 29 28 28 29 29 30 30
13 13 13 13 13 13 14 14 15 16 16 16 16 16 15 14 14 14 15 14 12 11 11 11 11 11 11 12 13 13 13 13 13 12 12 13 13 14 16 16 16 17 18 19 20 21 22 22 23 23 23 22 22 22 22 23 24 25 26 27 27 28 28 28 28 29 29 29 29 29 29 29 29 29 29 29 29 29 28 28 28 28 28 28 28 27
10 11 12 13 13 13 13 14 15 16 17 17 16 15 13 13 13 14 14 12 11 10 11 12 12 12 12 13 14 15 15 14 13 11 10 11 12 14 16 16 16 16 17 18 20 21 21 20 20 20 20 21 21 21 22 22 23 24 25 26 27 27 27 27 27 27 28 28 28 28 28 28 29 29 29 29 28 28 28 28 28 27 26 25 25 24
8 9 10 11 11 11 12 13 14 15 15 14 13 12 11 11 12 13 12 11 10 10 11 12 12 12 12 12 13 12 12 11 9 7 7 9 11 14 16 16 16 16 15 15 14 14 16 18 18 17 18 19 20 21 21 22 23 23 24 25 25 25 25 25 26 26 27 27 28 28 28 28 28 28 28 28 28 28 28 27 27 26 25 24 23 23
9 10 10 10 10 11 11 12 13 13 12 11 10 9 9 10 10 11 11 10 10 11 11 11 12 12 11 10 8 6 6 9 8 6 7 9 12 14 16 16 16 16 14 12 8 6 9 15 17 17 17 19 21 22 22 23 23 23 23 23 24 24 24 24 25 25 26 27 27 27 27 27 27 27 27 27 27 27 27 27 26 25 24 23 23 23
10 10 11 11 11 11 11 11 11 10 9 9 8 8 8 9 9 9 10 10 10 11 11 12 12 12 12 12 10 8 10 12 12 10 10 11 13 16 16 16 16 16 15 14 11 9 6 10 16 20 20 21 22 23 23 23 22 22 22 23 23 24 24 24 24 24 25 25 25 25 26 26 26 26 26 26 27 26 26 26 25 24 23 22 22 22
11 11 11 11 11 11 10 9 9 8 8 7 7 7 7 8 8 9 10 10 11 11 12 12 12 13 13 14 15 16 17 17 15 13 12 12 13 15 16 16 16 17 17 16 16 15 13 14 18 22 23 23 23 23 23 23 22 22 22 22 23 23 23 23 22 23 23 24 24 24 25 25 25 25 25 25 25 25 25 25 24 23 22 22 21 21
11 11 11 10 10 9 9 8 8 7 7 7 7 7 7 8 8 9 10 11 11 12 13 13 13 13 14 14 16 17 19 18 16 14 12 12 13 14 16 16 17 17 17 16 17 17 17 19 20 20 22 23 24 24 23 23 22 22 21 21 22 22 22 22 22 22 23 23 24 24 24 24 23 23 24 24 24 24 23 23 23 22 22 22 21 21
10 10 10 9 8 8 7 7 7 7 7 7 7 8 8 8 9 10 10 11 12 12 14 14 14 14 14 15 16 17 18 18 16 13 12 13 14 15 17 17 17 16 16 16 16 16 16 19 20 20 20 22 24 24 24 23 22 22 21 21 21 22 22 22 22 23 23 24 24 24 23 23 23 22 22 22 22 22 23 23 23 24 24 24 23 23
9 9 9 8 7 7 7 7 7 7 7 7 8 8 8 9 9 10 11 11 12 13 14 16 16 17 17 18 18 19 20 20 18 16 15 15 16 17 18 18 18 17 16 17 17 17 17 18 20 21 21 20 21 23 24 23 22 22 22 22 22 23 23 23 23 23 23 24 24 24 23 23 23 23 23 23 23 24 24 25 25 25 25 25 25 25
9 8 8 7 7 7 7 7 7 7 7 8 8 8 9 9 10 11 12 13 13 14 16 17 18 19 20 21 22 23 23 23 21 20 19 19 19 19 19 20 20 19 18 17 18 18 18 18 20 21 20 19 19 20 23 24 24 23 23 23 23 23 24 23 23 23 23 23 24 24 24 23 23 23 23 24 24 24 25 25 25 24 25 25 25 25
8 7 7 7 6 7 7 7 7 8 8 8 9 9 10 10 11 12 13 15 16 17 17 18 19 20 21 23 24 26 26 26 26 25 25 24 24 23 22 22 22 21 20 19 19 19 18 17 16 15 17 19 21 22 24 24 24 25 25 25 25 25 25 24 23 23 22 23 23 24 24 24 24 24 24 24 23 23 23 22 22 22 22 23 23 23
7 7 7 7 7 7 8 8 8 9 9 9 10 10 11 12 13 14 15 15 16 17 17 18 19 20 22 23 25 26 26 27 28 29 29 28 27 26 25 24 23 22 22 21 20 19 19 18 17 16 16 18 21 23 24 24 24 25 25 26 26 26 25 24 23 22 22 23 24 24 25 24 24 24 23 23 22 22 22 22 22 21 21 21 21 22
7 7 8 8 8 8 8 9 9 10 10 11 11 12 12 13 13 14 14 14 15 15 16 17 18 20 21 22 23 24 25 26 28 28 28 28 28 27 26 24 24 23 23 22 21 21 21 21 21 22 21 20 21 23 24 25 25 25 25 25 25 25 26 25 24 24 24 24 24 24 24 24 23 23 23 23 22 22 22 21 21 21 21 20 20 21
7 8 8 8 8 8 9 10 10 11 11 11 12 12 12 12 12 12 13 13 14 14 15 15 17 18 19 20 21 21 22 24 24 25 26 27 28 27 26 25 25 24 23 22 22 22 21 22 23 23 23 22 23 24 25 26 26 26 26 24 25 27 28 28 27 26 25 24 23 23 23 23 23 23 23 23 23 23 22 22 22 22 22 21 21 21
8 8 9 9 9 9 10 10 11 11 12 12 11 11 11 11 12 12 13 13 13 14 14 14 16 17 19 20 20 20 20 20 21 23 24 25 26 26 26 26 25 24 24 23 23 22 22 22 23 23 24 23 23 23 24 26 27 26 25 25 26 27 28 28 26 24 22 22 22 22 22 23 23 24 24 24 24 24 23 23 23 23 23 23 23 22
8 9 9 9 10 10 10 11 11 11 11 11 11 11 11 12 12 12 13 14 14 15 15 15 16 17 18 20 20 20 19 19 19 19 20 21 22 23 25 25 25 24 23 22 22 22 23 23 23 23 24 24 23 23 24 26 27 26 26 26 25 24 22 24 25 24 22 23 23 23 23 24 24 25 25 25 24 24 23 23 24 24 24 24 23 23
9 9 10 10 10 10 10 10 10 10 10 11 11 12 12 12 12 13 13 14 15 15 15 15 16 17 18 19 20 20 19 18 17 17 17 17 19 20 22 23 23 24 24 23 22 22 23 24 24 25 24 23 23 24 25 26 27 27 27 26 25 24 23 25 26 26 25 25 24 24 24 24 24 24 25 25 24 24 23 23 23 23 24 24 24 24
9 9 9 9 9 10 10 10 11 11 11 11 12 12 13 12 13 13 13 15 15 16 16 15 15 16 17 18 19 19 18 18 17 16 16 16 17 18 19 20 21 22 23 23 23 23 22 23 24 25 24 23 23 24 24 25 26 27 27 27 26 26 27 28 28 27 26 25 25 25 25 24 24 24 24 24 24 24 23 23 23 23 24 24 24 24
8 8 9 9 9 10 10 11 11 11 12 12 13 13 13 12 13 13 14 14 15 16 16 15 15 15 16 18 18 18 18 19 19 18 17 16 16 16 17 18 19 20 21 22 23 24 24 24 25 26 25 25 25 25 26 25 25 26 26 26 26 26 27 27 27 26 25 25 25 25 25 25 24 24 24 25 25 25 25 24 23 23 23 23 24 24
8 9 9 9 10 10 11 11 12 12 12 13 13 12 12 12 13 13 14 14 14 15 15 15 15 15 16 17 18 18 18 19 20 20 19 18 18 17 17 17 18 18 19 21 22 24 25 27 27 26 25 25 25 26 26 26 25 25 25 26 25 25 26 26 27 26 26 25 25 26 26 25 24 24 25 25 25 25 25 24 24 23 23 23 24 24
9 9 9 10 10 11 11 11 12 12 12 13 13 13 13 13 13 14 14 15 14 15 15 15 15 16 17 17 18 18 18 19 20 20 20 20 19 19 18 18 18 18 19 20 21 23 24 26 27 28 27 25 24 24 26 26 26 25 25 25 25 25 25 27 27 27 26 25 26 26 25 24 23 23 24 25 25 26 26 25 25 24 23 23 23 24
9 9 10 10 10 11 11 11 12 12 13 13 13 14 14 14 14 14 14 14 14 14 14 15 15 16 17 17 18 18 19 19 20 20 20 20 20 19 19 19 19 20 20 20 21 22 23 25 26 26 26 26 26 25 27 27 26 26 25 25 24 24 25 26 27 27 26 26 26 26 26 24 23 23 23 23 24 26 27 27 26 25 23 23 23 24
9 9 10 10 11 11 11 12 12 12 13 13 14 14 14 14 14 14 14 14 14 14 14 15 15 16 17 18 18 19 19 19 19 20 20 20 19 19 19 20 20 20 21 21 21 21 21 22 23 23 24 24 25 26 26 26 26 26 25 25 24 24 24 25 26 26 26 26 25 25 25 24 23 22 22 22 23 26 27 27 27 25 24 23 22 23
9 9 10 10 11 11 11 12 12 13 13 14 14 15 15 15 14 14 14 14 14 14 14 15 16 16 17 18 19 19 19 19 19 19 20 20 19 19 19 20 19 19 19 19 19 19 18 17 18 20 22 22 22 22 24 25 25 25 24 24 24 23 23 24 26 26 26 26 26 25 25 24 23 22 21 21 21 23 24 25 26 26 25 23 22 22
Wind_Direction
253 252 253 256 261 269 276 277 277 278 281 285 288 290 292 292 292 293 293 294 293 293 292 291 290 291 292 294 296 299 301 303 305 306 307 306 305 303 301 300 298 297 295 294 293 292 291 290 289 288 287 287 286 285 285 284 283 282 281 280 280 280 280 280 280 280 280 280 280 280 281 281 280 280 280 281 281 280 280 280 280 280 280 280 279 278
246 248 252 257 264 273 281 282 279 277 279 284 287 290 292 293 293 294 294 292 291 290 291 291 292 293 295 296 298 301 304 306 307 307 307 306 305 303 302 300 298 297 295 294 292 292 291 290 289 289 288 287 286 286 285 284 283 282 281 280 280 280 280 280 279 280 279 280 280 280 280 280 280 280 280 280 280 279 279 279 279 278 278 278 277 277
247 254 260 263 267 274 282 285 283 279 280 283 286 288 291 292 293 293 294 293 292 291 291 292 294 296 298 299 301 304 306 307 308 308 307 307 305 304 302 301 299 297 295 294 292 292 291 290 290 289 288 287 287 286 286 285 284 283 281 280 280 280 280 279 279 279 279 279 279 280 280 280 279 279 279 279 279 279 279 278 278 277 277 276 276 276
264 268 272 274 276 278 281 284 284 282 282 283 285 287 289 290 291 292 292 292 293 293 293 294 297 299 301 302 304 306 307 308 308 308 307 306 306 305 303 302 300 298 297 295 294 292 292 291 290 290 289 288 288 287 287 286 285 284 282 281 281 280 280 280 279 279 279 279 279 279 279 279 279 279 279 278 278 278 278 277 277 277 276 276 276 275
273 274 277 281 283 283 284 284 284 284 284 284 284 285 287 289 291 292 292 292 293 295 296 298 300 301 303 304 305 307 308 308 308 307 306 306 305 305 304 303 301 299 297 296 295 293 293 292 291 290 290 289 288 288 287 286 286 285 284 283 282 282 281 281 281 281 281 281 281 281 280 280 280 279 279 278 278 278 277 277 277 277 276 276 275 275
280 279 280 280 282 283 285 284 283 284 285 285 285 286 288 289 291 292 293 294 296 297 299 301 302 303 303 304 305 306 307 307 307 307 306 305 305 304 303 302 301 299 298 296 295 294 293 292 291 290 289 289 288 288 287 286 286 286 285 285 284 283 283 282 283 283 282 282 282 281 281 281 280 279 279 279 278 278 277 277 277 276 276 276 275 275
282 280 279 277 278 280 282 281 280 281 285 289 290 290 290 291 291 291 293 295 298 300 302 303 304 305 305 305 306 307 307 307 307 307 306 305 304 303 301 300 299 298 297 296 294 294 293 292 291 290 289 288 288 287 286 286 285 285 284 284 284 284 283 283 282 282 282 281 281 281 280 280 279 279 279 279 278 278 278 277 277 276 276 276 275 275
278 279 275 273 276 280 280 278 278 281 286 291 293 294 294 294 293 293 294 296 299 302 305 307 307 307 307 307 308 308 308 308 308 307 307 306 304 302 301 299 298 296 295 294 293 292 291 290 290 289 289 288 287 286 286 285 285 285 285 284 284 284 283 282 282 282 281 281 280 280 280 279 279 279 278 278 278 278 277 277 276 276 276 276 276 275
269 273 273 272 275 280 282 281 281 283 287 289 290 292 294 296 297 298 299 300 302 306 309 311 311 310 309 309 309 308 307 306 306 305 305 304 303 301 300 298 297 295 293 292 291 291 290 290 289 289 288 288 287 286 286 286 285 285 285 285 284 284 283 283 282 282 281 281 280 280 280 279 279 279 278 278 278 278 277 277 276 276 276 276 276 276
258 264 271 272 272 274 280 283 284 285 285 285 285 286 289 294 299 303 304 305 308 310 312 312 312 312 311 310 310 309 307 305 304 302 302 300 300 299 298 297 295 293 293 292 291 290 290 289 289 289 288 287 287 286 286 286 286 286 286 285 285 285 284 284 283 283 282 282 281 281 280 280 280 279 279 278 278 278 277 277 277 277 277 276 276 276
258 262 269 274 275 275 276 280 283 286 285 286 285 285 286 292 300 307 309 310 312 313 314 313 312 312 312 311 310 309 307 305 304 302 301 300 299 298 298 297 296 294 294 293 292 291 290 290 290 289 288 288 287 287 287 287 286 286 286 286 286 286 285 285 285 285 284 284 283 283 282 281 281 280 280 279 279 278 278 278 278 278 277 277 276 276
262 267 271 275 277 279 280 281 283 286 287 289 292 294 294 299 305 310 310 310 312 313 314 312 311 310 309 308 308 307 305 304 303 303 302 302 302 301 301 300 299 298 297 296 294 293 292 291 290 290 289 288 288 288 287 287 287 287 287 287 287 287 287 287 287 286 286 285 285 284 283 283 282 282 281 281 280 279 279 279 278 278 277 276 276 276
260 263 266 271 276 280 283 286 289 291 293 295 298 301 303 307 311 310 307 306 308 310 312 311 310 308 306 304 303 303 302 301 301 302 302 303 303 303 303 303 302 301 299 298 296 294 293 293 292 290 289 289 288 288 288 287 287 287 287 288 288 288 288 288 288 287 287 287 286 286 285 284 284 283 282 281 281 280 280 279 278 278 277 276 276 276
261 263 268 274 279 283 286 290 293 295 296 298 300 302 304 307 309 308 305 303 305 308 309 308 307 306 305 303 300 299 300 300 301 301 301 301 301 302 302 302 301 300 298 297 295 293 293 293 292 291 290 289 289 288 288 288 287 287 288 288 288 289 289 289 289 289 289 288 287 287 286 285 284 284 283 282 281 280 279 279 278 277 277 276 276 276
269 274 279 282 285 287 289 292 294 295 296 299 302 303 304 305 305 306 305 304 306 308 309 307 305 304 303 301 300 299 299 299 300 301 301 300 300 301 302 302 300 298 297 295 293 292 292 292 291 289 289 289 288 287 288 288 288 288 288 289 289 290 290 290 290 289 289 288 288 287 286 286 285 284 284 283 282 281 280 279 278 278 277 276 276 275
277 280 281 282 284 286 289 292 293 295 297 300 303 304 305 304 304 304 304 304 305 307 308 307 306 305 304 302 301 301 301 301 301 301 301 300 300 300 302 301 299 297 295 293 292 292 292 291 289 288 287 287 287 287 288 288 289 289 289 290 290 290 290 290 290 290 289 289 288 287 287 286 285 284 284 283 282 282 281 280 279 278 278 277 277 276
274 275 277 280 283 286 289 291 293 294 297 300 301 301 300 300 301 301 300 301 302 304 304 304 304 305 305 305 305 305 307 307 305 303 302 299 299 299 300 299 296 294 293 292 291 290 291 289 288 287 286 287 287 288 289 289 289 290 290 290 290 290 290 290 290 290 289 289 288 287 286 286 285 284 284 283 282 282 281 280 280 279 278 278 277 277
270 273 277 281 284 287 290 292 293 294 297 299 300 299 298 297 297 297 296 296 297 298 299 299 298 298 300 302 303 305 309 310 307 304 301 298 297 298 299 297 294 292 291 290 289 288 288 287 286 286 286 287 288 288 289 289 290 290 290 290 290 290 290 290 289 289 289 288 288 287 286 286 285 284 284 283 283 282 281 280 279 279 278 278 277 276
275 278 280 283 285 287 289 291 293 295 298 300 301 302 300 298 296 294 293 292 292 292 293 293 293 293 293 294 297 301 306 308 306 303 299 297 296 297 297 295 292 289 288 288 288 288 287 286 286 286 287 287 288 289 290 290 290 290 290 291 290 290 290 290 290 289 289 288 288 287 287 286 285 285 284 283 283 282 281 280 279 279 278 277 277 276
282 282 283 285 288 289 288 289 290 294 298 302 303 301 297 296 294 291 290 288 288 288 288 288 289 290 291 292 295 298 303 306 304 300 296 294 294 294 295 294 291 288 287 287 287 288 288 288 287 288 288 289 290 290 291 291 291 291 291 291 291 291 290 290 290 289 289 288 288 288 287 286 286 285 284 284 283 283 282 281 280 279 278 277 277 276
283 282 283 286 289 289 287 286 286 290 295 298 298 296 292 292 290 288 287 288 288 288 288 288 288 289 291 292 294 296 300 301 299 295 293 292 291 292 293 292 290 288 287 287 288 289 289 288 288 288 289 290 290 291 291 291 291 291 291 291 291 291 290 290 290 289 289 289 289 288 287 287 286 286 285 284 284 283 282 281 280 279 278 277 277 276
279 281 283 285 285 284 283 283 284 286 289 290 289 287 287 288 287 288 289 291 292 292 290 288 288 289 290 290 290 292 294 293 290 287 288 288 288 289 292 293 291 288 287 288 289 290 290 289 289 288 289 290 290 291 290 291 291 291 291 291 291 291 291 290 290 290 289 289 289 289 288 288 287 286 285 285 284 283 283 281 280 279 278 277 276 276
276 279 282 283 280 278 278 281 283 284 284 281 279 279 281 283 286 290 293 294 293 291 289 288 287 287 287 286 287 288 288 286 282 280 282 282 284 288 293 294 292 289 287 288 291 292 291 290 289 289 290 290 290 290 290 290 290 291 290 290 290 290 290 290 290 290 289 289 289 289 288 288 287 287 286 286 285 284 284 283 282 281 279 278 277 276
276 278 279 278 277 275 277 280 282 283 283 281 281 281 282 284 286 288 289 289 288 287 287 287 287 287 286 286 286 286 285 282 278 275 275 277 282 287 291 293 291 289 288 290 292 294 293 291 290 290 291 291 291 291 291 290 290 290 290 290 290 290 290 289 289 289 289 289 289 289 289 288 288 288 287 286 286 285 284 284 283 282 280 279 277 276
278 278 277 277 277 277 278 280 280 281 283 285 287 287 287 287 288 288 287 285 284 283 283 284 283 283 284 286 287 286 285 282 276 272 271 276 281 285 288 290 290 290 290 292 294 295 294 293 292 292 292 291 292 292 291 291 290 290 290 290 290 289 289 289 289 289 289 289 289 289 289 288 288 288 287 287 286 285 285 284 283 282 281 280 278 277
272 273 274 275 276 277 277 278 277 279 282 284 286 287 288 289 288 287 285 282 280 279 278 278 278 279 283 287 287 287 286 284 277 271 271 276 282 285 288 290 290 290 291 293 295 295 295 293 292 292 292 292 292 292 292 291 291 290 291 291 290 289 289 289 289 289 289 289 289 289 288 288 288 287 287 286 286 285 285 284 283 282 282 281 280 278
269 268 268 270 272 273 275 276 277 279 280 281 282 284 285 285 284 281 277 276 275 275 275 275 277 280 284 286 285 286 288 288 282 276 273 276 279 283 286 290 292 292 293 294 295 295 294 292 292 291 291 291 292 292 292 292 292 292 292 291 290 289 289 289 289 289 289 288 288 288 288 288 287 287 287 286 286 285 285 284 284 283 283 282 281 280
275 273 273 275 276 278 279 280 281 281 281 282 281 280 278 276 273 270 269 270 272 272 270 271 274 279 283 285 286 288 290 288 283 278 274 273 274 278 284 291 294 295 296 296 296 295 293 290 289 289 289 290 291 292 292 293 293 293 292 291 291 290 289 289 289 289 289 288 288 288 288 288 287 287 287 286 286 285 285 285 284 284 284 283 282 280
288 288 289 289 288 288 287 287 287 287 288 287 284 278 271 264 260 259 262 265 267 267 266 266 269 274 280 285 289 291 290 285 280 275 272 271 273 278 286 292 295 297 299 299 299 297 293 289 288 288 289 291 292 293 294 295 295 294 293 292 291 291 290 290 289 289 289 289 289 288 288 288 287 287 286 286 286 285 285 285 285 285 285 283 281 279
293 296 297 296 294 293 292 292 293 294 295 293 287 276 263 255 251 253 256 259 260 260 262 265 268 272 278 285 290 291 288 284 280 276 276 276 278 283 290 293 295 296 300 302 302 300 296 293 291 290 291 293 294 295 295 296 296 295 294 293 292 291 291 291 290 290 290 290 289 288 288 287 287 286 286 286 285 285 285 285 285 285 283 282 280 278
295 296 296 296 296 295 293 293 294 296 296 293 285 272 258 250 248 249 252 252 253 254 259 263 266 269 273 279 284 287 284 284 285 290 291 285 283 286 291 293 293 294 296 296 298 301 300 299 297 296 296 297 297 296 295 295 295 294 293 293 292 292 292 292 291 291 291 290 290 289 288 287 287 286 286 285 285 285 284 284 284 283 282 281 279 277
297 298 297 298 297 296 295 293 293 291 289 285 278 268 257 251 248 249 249 249 250 252 256 260 264 266 267 267 267 269 275 280 284 290 292 287 284 286 289 289 290 291 291 288 284 284 293 296 297 299 299 299 297 296 295 295 294 294 293 292 291 291 292 292 292 293 292 292 291 290 289 288 287 286 286 285 284 284 283 283 282 281 280 279 277 276
297 297 296 296 295 293 290 288 285 282 279 276 271 265 259 254 251 250 250 250 250 251 254 259 263 265 266 266 266 268 271 275 280 284 286 284 283 284 287 287 288 289 291 288 283 279 279 283 290 295 297 297 296 295 295 295 294 293 292 291 291 291 292 293 293 293 293 293 293 292 291 289 288 287 286 285 284 283 282 282 281 279 277 276 275 275
296 295 294 293 290 287 283 280 277 274 273 272 270 266 262 259 257 255 253 252 252 252 253 256 260 263 266 268 269 270 271 274 278 282 283 282 281 284 287 287 288 289 291 289 287 283 280 281 286 291 294 296 296 295 294 294 294 293 292 291 290 291 293 294 294 294 294 293 293 292 292 291 289 288 287 285 284 282 281 280 280 278 276 274 272 272
295 293 292 289 286 283 280 277 275 274 273 272 271 268 265 264 262 261 259 257 256 255 254 254 255 258 261 265 269 271 273 275 278 282 284 282 282 283 286 285 285 287 288 287 287 286 285 285 285 287 291 294 295 295 294 294 294 294 293 292 291 291 292 293 294 294 293 293 292 291 291 290 290 288 287 285 284 283 282 282 281 279 276 274 271 270
291 290 289 286 283 282 280 279 279 279 278 276 275 272 270 268 267 266 264 263 261 260 258 258 257 257 258 260 263 267 271 275 279 282 282 280 279 280 282 282 283 283 283 284 283 283 284 285 286 287 289 290 292 294 295 296 296 296 295 294 293 293 292 292 292 292 291 291 290 289 289 289 289 288 286 285 284 284 284 283 282 280 278 276 273 270
287 286 286 285 284 283 284 284 284 284 283 282 281 279 277 274 273 271 270 268 266 265 264 264 263 261 259 259 261 264 268 273 277 278 277 276 276 276 276 278 280 279 278 278 280 281 282 284 286 287 287 286 287 290 295 298 299 298 296 296 295 295 293 292 291 290 289 288 287 287 287 287 287 287 286 286 285 285 284 282 281 280 278 276 274 272
283 284 286 286 287 287 288 288 287 287 287 287 286 284 282 280 278 277 276 273 272 271 270 269 269 267 265 263 263 266 269 272 274 275 275 274 273 273 273 274 276 275 273 272 274 276 278 280 283 285 285 285 285 287 291 295 297 296 296 296 295 294 293 292 291 289 287 286 286 286 286 286 286 286 286 286 285 285 284 282 281 280 279 278 276 274
282 283 286 287 288 288 289 289 289 290 289 289 288 287 287 285 283 281 280 278 276 274 272 273 272 272 271 270 269 269 270 271 273 275 275 274 272 270 269 270 272 272 272 270 269 270 271 273 275 277 281 284 286 287 289 291 292 293 295 296 296 294 292 291 290 289 288 287 287 287 287 286 285 285 284 284 283 282 282 282 281 280 279 279 279 278
282 284 286 287 287 287 288 288 290 291 292 291 290 290 289 288 286 285 283 281 278 275 273 273 273 273 273 273 272 271 271 272 274 275 275 274 273 270 267 267 268 270 271 271 269 268 269 270 271 273 275 278 282 286 288 289 288 290 293 295 294 293 293 292 291 290 288 287 285 285 285 284 284 283 282 282 280 279 278 278 279 279 278 278 278 279
283 285 286 287 288 288 287 288 290 291 292 292 291 290 289 288 288 288 286 285 283 281 279 279 279 279 278 277 275 274 273 274 274 273 274 273 273 271 267 265 265 267 269 269 268 267 266 268 270 272 274 275 278 281 284 285 286 288 289 289 289 289 291 291 290 289 287 285 284 283 283 283 283 283 282 281 279 277 276 275 275 276 276 275 274 273
282 284 286 288 288 288 288 290 291 292 291 290 288 286 287 288 289 290 290 290 289 287 285 286 287 286 286 285 283 280 277 275 274 273 273 273 273 271 268 266 264 264 266 267 268 267 266 266 268 271 273 275 277 280 282 284 285 285 285 284 286 289 291 290 289 288 287 285 285 284 284 284 284 283 282 281 279 278 276 274 273 273 273 272 270 269
281 283 285 287 287 288 289 290 291 290 289 288 286 285 286 287 288 289 290 289 290 290 290 290 290 290 290 290 289 288 285 281 278 276 275 274 273 272 269 267 265 264 263 264 266 268 268 268 268 268 271 274 275 276 279 282 284 285 284 283 285 287 289 289 290 289 288 286 285 285 284 283 282 282 281 280 279 277 276 274 274 273 269 268 267 266
283 285 286 286 288 289 290 290 291 290 289 288 287 286 286 286 287 288 288 288 290 291 292 292 292 291 290 290 291 292 293 291 288 284 279 276 274 273 271 267 265 263 262 260 261 266 270 272 272 272 273 273 273 274 277 280 282 283 283 283 282 281 280 283 287 289 288 286 284 283 282 281 281 281 281 280 278 277 275 274 272 270 268 266 264 263
284 285 287 288 290 291 292 292 292 291 290 288 287 288 288 287 288 288 286 288 289 290 291 292 293 292 290 291 292 295 297 297 295 292 287 284 281 277 273 269 266 264 262 259 259 261 265 269 273 276 276 275 273 273 274 277 279 281 282 282 281 279 277 279 282 284 284 284 284 283 282 282 281 281 281 280 279 277 276 274 272 270 268 266 264 262
283 285 288 290 292 292 292 292 292 292 290 289 288 288 289 289 289 288 286 286 287 288 289 289 288 287 288 290 293 296 297 298 298 297 294 292 288 284 279 274 271 268 265 263 262 262 262 264 270 275 278 277 276 274 273 274 275 278 280 280 281 280 280 281 281 281 281 282 282 282 283 282 281 280 279 279 280 279 278 275 273 270 268 266 264 262
284 286 289 291 292 292 292 293 292 292 291 290 290 289 289 289 289 289 288 286 285 286 287 288 286 284 284 286 290 293 294 296 298 298 298 297 295 292 288 283 278 274 270 268 268 267 265 266 267 269 272 275 276 276 275 274 273 274 276 279 280 280 281 281 282 282 281 280 280 280 282 281 280 279 278 279 280 280 279 278 275 272 269 267 265 263
286 288 289 291 291 291 291 292 292 291 291 291 291 291 291 290 288 288 288 287 286 285 287 286 285 284 284 285 286 288 289 291 293 295 297 297 297 296 294 291 287 284 280 276 274 272 271 270 268 268 267 268 271 274 275 276 275 274 274 276 277 278 279 280 282 283 282 281 279 278 278 278 277 277 278 280 282 282 282 281 279 275 271 268 266 264
287 287 288 289 289 289 289 290 291 291 292 292 293 293 292 291 289 286 285 286 285 284 284 284 284 285 286 287 287 287 288 289 289 291 293 295 296 297 297 295 295 293 291 288 284 281 279 276 273 269 265 263 264 268 272 274 275 274 275 275 274 275 278 280 282 284 284 283 281 280 279 277 275 275 276 278 280 283 284 284 282 280 276 272 269 266
287 286 286 286 286 286 286 289 290 291 292 293 293 294 293 292 290 287 285 284 283 282 281 281 283 284 286 287 288 288 288 288 289 289 291 293 295 295 296 297 297 297 297 295 293 291 289 286 283 278 272 265 262 263 267 271 274 276 276 275 274 275 277 279 282 284 285 285 285 284 283 280 278 276 274 275 278 281 283 284 284 283 281 277 273 269
287 286 285 284 284 284 286 288 289 290 290 291 292 293 293 292 291 289 287 286 283 282 281 281 281 282 283 285 286 287 287 287 287 287 289 292 293 294 294 295 295 295 295 296 296 296 295 293 291 290 287 279 270 265 265 270 275 277 278 277 277 278 279 281 283 285 286 287 287 287 286 283 281 279 276 275 276 280 283 285 285 285 284 282 278 274
Height
817 817 817 816 816 816 816 815 815 815 814 815 815 814 814 814 813 812 812 811 811 810 809 809 808 807 806 805 804 803 802 800 799 799 798 798 797 797 796 796 795 795 794 794 794 793 793 793 792 792 791 791 790 790 789 789 788 788 787 787 786 785 785 784 784 783 783 782 781 781 780 779 779 778 778 777 777 776 776 776 776 775 775 775 774 774
816 816 816 815 815 815 815 814 814 814 814 814 814 814 813 813 812 811 811 810 810 809 809 808 807 805 804 803 802 801 800 799 798 797 796 796 795 795 794 794 794 793 793 792 792 792 791 791 790 790 789 789 789 788 788 787 786 786 785 785 784 784 783 782 782 781 780 780 779 779 778 778 777 776 776 776 775 775 774 774 774 774 773 773 773 772
816 815 815 815 814 814 814 814 814 814 814 813 813 812 812 811 811 810 810 809 809 808 807 806 805 804 803 801 800 799 798 797 796 795 795 794 794 793 793 792 792 791 791 790 790 790 789 789 789 788 788 787 787 786 786 785 784 784 784 783 782 781 781 780 780 779 779 778 777 777 776 775 775 774 774 774 774 773 773 772 772 772 771 771 770 770
815 814 814 814 814 814 813 813 813 813 813 812 812 811 811 810 810 809 809 808 808 807 806 805 804 802 801 799 798 797 796 795 795 794 794 793 792 792 791 791 790 790 789 789 789 788 788 787 787 786 786 785 785 784 784 783 783 782 781 781 780 779 779 778 778 777 776 776 775 774 774 774 773 773 772 772 771 771 771 770 770 769 769 769 768 768
814 814 813 813 813 813 813 813 812 812 812 811 811 810 810 809 809 808 808 807 806 805 804 803 802 801 799 798 797 796 795 794 793 793 792 792 791 790 790 789 789 788 788 787 787 787 786 786 785 785 784 784 783 783 782 781 781 780 779 779 778 777 777 776 775 775 774 774 773 772 772 771 771 770 770 769 769 769 768 768 768 767 767 766 766 765
813 813 813 812 812 812 812 812 811 811 811 810 810 810 809 809 808 807 807 806 805 804 803 802 800 799 798 797 795 794 794 793 792 791 791 790 789 789 789 788 788 787 786 786 785 785 784 784 784 783 782 782 781 780 780 779 779 778 777 777 776 775 774 774 773 773 772 771 771 770 770 769 769 768 768 767 767 767 766 766 765 765 764 764 764 763
812 812 812 812 812 811 811 811 810 810 810 809 809 809 808 808 807 806 806 805 804 803 801 800 799 798 797 796 794 794 792 792 791 790 789 789 789 788 787 787 786 786 785 784 784 784 783 782 782 781 780 780 779 779 778 777 776 776 775 774 774 773 772 772 771 770 770 769 769 768 768 767 767 766 766 765 765 764 764 764 763 763 762 762 761 761
812 811 811 811 811 810 810 810 810 809 809 809 808 808 807 806 806 805 804 804 803 802 800 799 798 797 796 795 794 793 792 791 790 789 789 788 787 787 786 786 785 784 784 783 782 782 781 780 780 779 778 778 777 776 775 774 774 773 773 772 771 770 770 769 769 768 768 767 766 766 765 765 764 764 764 763 763 762 762 761 761 760 760 759 759 759
811 811 811 810 810 810 809 809 809 809 809 808 808 807 806 805 804 804 803 802 801 800 799 798 797 796 795 794 793 792 791 790 789 789 788 787 787 786 785 784 784 783 782 781 781 780 779 778 778 777 776 775 774 774 773 772 771 771 770 769 769 768 768 767 766 766 765 765 764 764 763 763 762 762 761 761 760 760 759 759 759 758 758 757 757 756
811 810 810 809 809 809 809 808 808 808 808 807 806 806 805 804 803 802 802 801 800 799 799 798 796 795 794 793 792 791 790 789 789 788 787 786 786 785 784 783 782 781 780 780 779 778 777 776 775 774 774 773 772 771 770 770 769 768 768 767 766 766 765 765 764 764 763 763 762 762 761 761 760 759 759 759 758 758 757 757 756 756 755 755 754 754
809 809 809 809 808 808 808 808 807 807 806 806 805 804 804 804 803 802 800 799 799 798 798 797 796 795 793 792 791 790 789 789 788 787 786 786 785 784 783 782 781 780 779 778 777 776 775 774 774 773 771 770 770 769 768 768 767 766 765 765 764 764 763 763 762 762 761 760 760 759 759 759 758 758 757 756 756 755 755 754 754 753 753 752 752 751
809 808 808 808 807 807 807 806 806 805 805 804 804 803 803 802 802 802 801 799 798 798 797 796 795 794 794 792 791 790 789 788 787 786 786 785 784 783 782 781 780 779 778 777 776 774 773 772 771 770 769 768 767 767 766 765 764 764 764 763 762 762 761 761 760 759 759 759 758 757 757 756 756 755 754 754 754 753 752 752 751 751 750 750 749 749
808 807 807 807 806 806 805 805 804 804 804 804 803 802 802 802 802 801 801 799 799 798 797 795 794 794 793 792 791 789 789 788 787 786 785 784 783 782 781 780 779 778 777 775 774 773 772 770 769 769 767 766 765 764 764 763 763 762 762 761 760 760 759 759 758 758 757 756 756 755 755 754 754 753 752 752 751 750 750 749 749 748 748 747 747 746
806 806 806 805 805 804 804 804 804 803 803 803 803 802 802 802 801 801 800 799 798 798 797 796 794 793 792 791 790 789 788 787 786 785 784 784 783 781 780 779 778 777 775 774 773 771 770 769 768 766 765 764 764 763 762 762 761 760 760 759 759 758 757 757 756 755 755 754 754 753 752 752 751 750 750 749 749 748 747 747 746 746 745 744 744 744
805 805 804 804 804 804 803 803 803 803 802 802 802 802 802 801 801 800 800 799 798 797 797 795 794 793 791 790 789 789 788 787 786 784 783 782 782 781 780 779 777 776 774 773 771 770 769 768 766 765 764 763 762 761 761 760 759 759 758 757 757 756 755 754 754 753 753 752 751 751 750 749 749 748 747 747 746 745 745 744 744 743 743 742 741 741
804 804 804 804 803 803 803 803 802 802 802 802 802 801 801 801 800 800 800 799 798 797 796 795 793 791 790 789 789 788 787 786 785 784 782 781 780 780 779 778 776 774 773 772 770 769 767 766 765 764 762 761 760 759 759 758 757 757 756 755 754 754 753 752 752 751 750 750 749 748 748 747 746 745 745 744 744 743 742 742 741 740 740 739 739 738
804 803 803 803 802 802 802 802 802 802 801 801 801 801 801 800 800 800 799 799 798 797 796 795 793 791 789 788 787 787 786 785 784 783 782 780 779 778 778 777 775 773 772 770 769 768 766 765 763 762 761 759 759 758 757 756 755 754 754 753 752 751 751 750 749 749 748 747 747 746 745 744 744 743 742 742 741 740 739 739 739 738 737 737 736 735
803 802 802 802 802 801 801 801 801 801 801 801 801 801 800 800 800 799 799 798 798 796 795 794 793 791 789 787 786 786 786 785 784 783 781 779 778 777 777 776 774 772 770 769 767 766 765 763 762 760 759 758 757 756 755 754 753 752 751 751 750 749 749 748 747 746 746 745 744 744 743 742 741 741 740 739 738 738 737 736 736 735 734 734 734 733
801 801 801 801 801 801 801 801 801 801 801 801 800 800 800 799 799 799 798 797 797 796 794 794 792 790 789 787 785 785 785 785 784 782 781 779 777 775 775 774 773 771 769 768 766 765 764 762 760 759 757 756 755 754 753 752 751 750 749 749 748 747 746 745 744 744 743 743 742 741 740 739 739 738 737 736 736 735 734 734 733 732 732 731 731 730
801 801 801 801 800 800 800 800 800 801 801 800 800 800 799 799 798 798 797 796 795 794 794 793 791 789 788 786 785 784 784 784 783 782 780 778 776 774 774 773 772 770 768 766 765 764 762 760 759 757 755 754 753 752 751 750 749 748 747 746 745 744 744 743 742 741 741 740 739 739 738 737 736 735 734 734 733 732 732 731 730 729 729 728 728 727
800 800 800 800 800 800 800 800 800 800 800 800 800 799 799 798 797 796 795 795 794 793 793 791 790 789 787 786 784 784 784 784 783 781 779 777 775 773 773 772 771 769 766 764 763 762 761 759 757 755 754 753 751 750 749 748 747 746 745 744 743 742 741 740 740 739 738 737 737 736 735 734 734 733 732 731 730 730 729 728 728 727 726 725 725 724
800 800 800 800 800 800 799 799 799 799 799 799 799 799 798 797 796 795 794 794 793 792 791 790 789 788 787 785 784 783 783 783 782 781 779 776 774 772 771 771 769 768 765 764 762 761 759 758 756 754 752 751 750 749 747 746 745 744 743 742 740 740 739 738 737 736 736 735 734 733 732 732 731 730 729 729 728 727 726 725 725 724 723 723 722 721
799 799 799 799 799 799 799 799 799 798 798 798 798 797 796 796 795 794 793 793 792 791 790 789 788 787 786 784 783 782 782 781 781 780 778 775 772 770 770 769 768 766 764 762 761 759 758 756 754 752 751 749 748 747 745 744 743 742 740 739 738 737 736 735 735 734 733 732 731 730 730 729 728 727 727 726 725 724 723 723 722 721 720 720 719 719
799 799 799 799 798 798 798 798 798 797 797 796 796 795 795 795 794 794 793 792 791 791 789 788 787 785 784 783 782 781 780 780 779 779 777 774 772 769 769 768 767 765 763 761 760 759 757 754 753 751 749 747 746 744 743 742 741 739 739 737 736 735 734 733 732 731 730 729 729 728 727 726 725 724 724 723 722 721 721 720 719 718 718 717 716 715
798 798 798 798 797 797 797 797 796 796 795 795 795 794 794 794 793 792 792 791 790 789 789 787 786 784 782 781 780 779 779 778 778 777 776 774 771 769 768 767 766 764 761 760 759 758 756 753 751 749 748 746 744 743 741 740 739 738 736 735 734 733 732 731 730 729 728 727 726 725 724 724 723 722 721 720 719 719 718 717 716 715 715 714 713 713
797 797 797 796 796 796 795 795 795 794 794 794 794 793 793 792 792 791 790 789 789 788 788 786 784 783 781 780 779 778 777 777 777 776 775 773 770 768 766 766 765 763 761 759 758 757 755 752 749 747 746 744 742 741 739 738 737 736 734 733 732 731 729 729 727 726 725 724 723 722 722 721 720 719 718 717 717 716 715 714 714 713 712 711 710 709
795 795 795 795 794 794 794 793 793 793 793 792 792 792 792 791 791 790 789 788 788 787 786 785 783 782 781 779 778 777 776 776 775 775 774 772 770 767 765 765 764 762 760 758 756 755 754 751 748 746 744 742 740 739 738 736 735 734 732 731 729 728 727 726 725 724 723 722 721 720 719 718 717 716 715 715 714 713 712 712 711 710 709 709 708 706
793 793 793 793 792 792 792 791 791 791 790 790 790 790 790 790 789 788 787 786 786 786 785 784 783 782 780 779 777 776 775 774 774 773 773 771 769 767 764 764 763 762 759 757 755 754 752 750 747 744 743 741 739 738 736 735 733 732 730 729 727 726 725 724 723 722 720 719 718 717 716 715 714 714 713 712 711 710 710 709 709 708 707 706 705 704
792 792 791 791 791 790 790 789 789 788 788 788 787 787 788 788 787 786 785 785 785 785 784 783 782 781 780 778 776 775 774 773 772 772 771 770 768 765 764 763 762 761 759 757 754 752 750 748 746 744 741 739 738 736 734 733 732 730 728 726 725 724 723 721 720 719 718 717 716 715 714 713 712 711 710 709 709 708 707 707 706 706 705 704 702 701
791 791 790 790 789 789 788 788 787 786 786 785 785 785 785 785 785 785 784 784 784 784 783 782 781 780 779 778 776 774 772 771 770 770 770 769 767 764 763 762 761 760 759 757 754 750 747 745 744 742 740 739 737 735 733 732 730 728 726 724 723 721 720 719 718 717 716 715 714 712 711 710 709 709 708 707 706 705 705 704 704 704 702 701 700 699
790 790 789 789 788 788 787 786 785 785 784 784 784 784 784 784 784 783 783 783 783 782 782 781 780 779 779 778 776 774 770 769 769 769 769 768 766 764 763 762 760 759 759 758 756 751 746 742 740 740 739 738 735 734 732 730 729 727 725 723 721 719 718 717 716 715 714 712 711 710 709 708 707 706 705 704 704 703 702 702 702 701 700 699 698 696
789 789 788 787 787 786 785 785 784 784 783 783 783 782 782 782 782 782 782 782 781 781 780 780 779 778 778 777 775 773 770 768 768 769 769 767 765 763 762 761 759 758 758 758 756 754 749 743 739 738 738 736 734 732 730 729 727 725 724 722 719 718 716 715 714 713 711 710 709 708 707 705 704 704 703 702 701 700 700 699 699 699 698 697 695 694
788 787 787 786 786 785 784 784 784 783 783 782 782 781 781 781 781 780 780 780 780 780 779 779 778 777 776 775 774 771 769 767 767 767 767 766 764 762 761 760 759 757 756 755 755 753 750 746 741 738 736 734 733 730 728 727 725 724 722 720 718 716 714 714 713 711 709 708 707 705 704 703 702 701 700 699 698 698 697 697 696 696 696 694 693 692
787 786 786 785 785 784 784 783 783 782 782 781 781 781 780 780 780 779 779 779 779 778 778 777 776 776 774 773 771 769 767 766 766 766 766 765 764 762 760 759 757 756 755 754 752 751 749 745 742 739 736 733 730 729 727 725 723 722 720 719 717 715 713 712 711 709 708 706 705 703 702 701 699 698 697 696 696 695 694 694 694 694 693 692 691 690
786 785 785 784 784 783 783 782 782 781 781 780 780 780 779 779 779 778 778 777 777 776 776 775 775 774 773 772 770 768 765 764 764 765 765 764 763 761 759 758 756 755 754 752 751 749 747 744 741 739 736 732 729 726 725 724 722 720 719 717 716 714 712 711 709 708 706 704 703 701 700 699 698 696 695 694 693 693 692 691 691 691 690 690 689 688
785 785 784 784 783 783 782 781 781 781 780 779 779 779 778 778 777 777 776 776 775 775 774 774 773 772 771 770 769 766 764 763 763 763 763 763 762 760 758 756 755 754 753 751 749 748 745 742 740 738 736 732 728 724 722 721 720 719 717 715 714 713 711 709 708 707 705 703 701 699 698 697 696 694 693 692 691 690 689 689 688 688 687 687 686 686
785 784 783 783 782 782 781 781 780 780 779 779 778 778 777 777 776 775 775 774 774 773 772 771 770 769 769 768 766 764 762 761 761 761 761 761 760 759 757 755 753 753 752 750 748 746 744 742 739 736 734 732 728 724 721 719 718 717 715 714 712 711 709 708 706 705 703 701 699 698 696 695 694 692 691 690 689 688 687 686 685 685 684 683 683 682
784 783 783 782 782 781 780 780 779 779 778 778 777 777 776 775 775 774 774 773 772 771 770 769 768 767 766 765 764 762 761 759 759 758 758 758 758 757 755 753 751 750 750 749 747 745 743 741 738 735 732 729 726 724 721 719 717 715 713 712 710 709 707 705 704 703 701 699 698 696 694 693 692 691 689 688 687 686 685 684 683 682 681 680 679 679
783 783 782 781 781 780 780 779 779 778 777 777 776 775 775 774 773 773 772 771 770 769 769 768 766 765 764 762 761 760 759 758 756 756 755 755 755 754 753 751 749 748 747 746 745 744 742 739 737 734 731 727 724 722 720 719 717 714 712 710 708 706 705 704 702 701 699 698 696 694 693 691 690 689 687 686 685 684 683 681 680 679 679 678 677 676
783 782 781 781 780 779 779 778 778 777 776 775 775 774 774 773 772 771 770 769 769 768 767 766 764 763 762 760 759 758 757 755 754 753 753 752 752 751 751 749 747 746 744 744 743 741 740 738 735 732 730 727 724 721 719 717 715 713 712 709 706 703 702 701 700 699 697 696 694 692 691 689 688 687 685 684 683 682 680 679 678 677 677 676 675 674
782 781 780 780 779 779 778 777 777 776 775 774 774 773 772 772 771 770 769 768 768 767 766 764 763 762 760 759 757 756 755 753 752 751 750 749 749 748 748 747 745 744 743 741 740 738 737 735 733 730 728 726 723 720 718 715 714 712 711 709 705 702 700 699 698 696 695 693 692 690 689 687 686 684 683 682 680 679 678 677 676 675 674 674 673 672
781 780 780 779 778 778 777 776 775 775 774 774 773 772 771 771 770 769 768 767 766 765 764 763 762 760 758 756 755 754 753 751 750 749 748 747 746 745 745 744 743 741 740 739 737 735 734 733 730 728 726 724 722 719 716 713 711 710 709 707 704 701 698 695 694 694 693 691 689 688 687 685 684 682 681 679 678 676 675 675 674 673 672 671 670 669
780 779 779 778 777 777 776 775 774 774 773 773 772 771 770 770 769 769 767 766 765 764 763 762 761 759 757 754 752 751 750 749 748 747 746 745 744 743 742 741 740 739 738 737 735 733 731 730 728 726 724 722 720 718 714 711 709 708 706 705 703 701 697 693 691 691 691 689 688 686 685 683 681 680 678 676 675 674 673 672 671 670 669 668 667 666
779 779 778 777 776 776 775 774 774 773 773 772 771 770 769 769 768 768 766 765 764 763 762 761 759 758 756 753 751 749 748 747 746 745 744 744 743 741 740 739 738 737 736 734 733 730 729 727 725 723 721 720 718 716 713 710 707 705 703 702 701 699 696 692 689 689 688 686 685 684 682 681 679 677 675 674 672 671 670 669 668 666 665 665 664 663
779 778 777 776 776 775 774 774 773 772 772 771 770 769 769 768 767 766 765 764 763 762 761 759 759 757 754 752 750 748 746 745 744 743 742 741 740 739 738 737 736 734 733 732 730 729 727 724 722 720 719 718 716 714 711 708 705 703 701 699 698 696 694 691 689 687 685 684 682 681 679 679 677 675 673 671 669 668 667 666 664 663 662 661 660 659
778 777 776 776 775 774 774 773 772 771 771 770 769 768 767 767 766 765 764 763 762 760 759 759 757 756 753 751 749 747 745 743 742 741 740 739 738 737 736 735 734 732 731 729 728 726 724 722 720 718 716 715 713 710 708 706 704 701 698 696 695 693 690 688 686 685 683 681 679 678 677 676 675 673 670 668 666 665 664 663 662 660 659 658 657 656
777 777 776 775 774 774 773 772 771 771 770 769 768 767 766 766 765 764 763 762 761 759 758 757 756 754 752 750 748 747 745 742 740 739 738 737 736 735 734 733 731 730 729 727 725 724 722 719 718 716 714 712 709 706 704 703 701 699 696 694 692 690 688 685 683 682 681 679 677 675 674 674 672 670 668 665 663 662 660 659 658 657 656 655 654 653
777 776 775 774 774 773 772 771 770 770 769 768 767 766 765 764 764 763 761 760 759 758 757 755 754 753 751 749 747 746 744 742 739 737 736 734 734 732 731 730 729 728 726 725 723 721 719 717 715 714 713 710 707 704 701 699 698 696 694 692 690 688 685 682 680 679 678 676 674 673 672 671 670 668 665 663 660 658 657 656 655 654 653 652 651 649
776 775 774 774 773 772 771 770 770 769 768 767 766 765 764 763 762 761 760 759 758 757 755 754 753 751 749 747 745 744 743 741 739 736 734 733 732 730 729 728 727 725 724 722 721 719 717 714 713 711 709 708 705 702 699 696 694 693 691 689 688 685 683 680 678 676 675 673 672 670 670 669 667 666 664 661 658 655 653 652 651 650 650 649 648 646
775 774 774 773 772 771 770 769 769 768 767 766 765 764 762 761 760 760 759 758 756 755 754 753 751 750 748 746 744 742 741 739 737 735 733 732 730 729 727 726 725 723 722 720 718 716 714 711 709 707 706 705 703 700 697 694 691 690 689 687 685 683 681 678 675 674 673 671 669 668 667 666 664 663 662 659 656 653 650 649 647 647 646 646 645 643
774 773 773 772 771 770 769 769 768 767 766 765 764 762 761 760 759 758 757 756 755 754 753 751 750 749 746 744 742 741 739 737 735 733 731 730 729 728 726 724 723 722 720 718 715 713 711 708 705 702 700 700 700 698 696 693 690 687 685 683 682 681 679 676 674 672 670 669 667 666 664 663 662 661 659 657 655 651 648 646 644 643 643 643 642 640